Location: B?lite?ti
(46.2833°N, 22.7333°E)
Time: 04:22:09
(UTC+00:00)

Okean O Rocket - Pass Details

Date: 24 January 2021
Orbit: 622 x 645 km, 98.2° (Epoch: 26 February)

Event Time Altitude Azimuth Distance (km) Brightness Sun altitude
Rises 16:21:44 0° 176° (S) 2,939 5.2 -10.4°
Reaches altitude 10° 16:23:59 10° 181° (S) 2,032 4.4 -10.7°
Maximum altitude 16:28:19 54° 259° (W) 779 2.5 -11.5°
Drops below altitude 10° 16:32:41 10° 338° (NNW) 2,036 4.3 -12.2°
Sets 16:34:56 0° 343° (NNW) 2,946 5.1 -12.6°
